User: anonymous   Login
Location: Champignolles
(47.0543°N, 4.5663°E)
Time: 19:52:57
(UTC+00:00)
Language:

Cosmos 923 Rocket - Orbit

View from above orbital plane
View from above orbital plane
View from above satellite
View from above satellite

Ground track
Ground track

The orbit data is extracted from the following two-line orbital elements,

1 10121U 77059B   21060.30762702  .00000033  00000-0  20184-4 0  9994
2 10121  74.0483 169.7177 0019067 191.1771 168.8961 14.35971812283846
Epoch (UTC): 01 March 2021 07:22:58
Eccentricity: 0.0019067
inclination: 74.0483°
perigee height: 758 km
apogee height: 785 km
right ascension of ascending node: 169.7177°
argument of perigee: 191.1771°
revolutions per day: 14.35971812
mean anomaly at epoch: 168.8961°
orbit number at epoch: 28384

The dashed part of the orbit path shows where the satellite is in the earth's shadow,  

DLR